TimeEST,TemperatureF,Dew PointF,Humidity,Sea Level PressureIn,VisibilityMPH,Wind Direction,Wind SpeedMPH,Gust SpeedMPH,PrecipitationIn,Events,Conditions,WindDirDegrees,DateUTC
12:53 AM,48.0,42.1,80,30.11,10.0,North,3.5,-,N/A,,Clear,360,2012-11-25 05:53:00
1:53 AM,46.0,41.0,83,30.12,10.0,North,3.5,-,N/A,,Clear,360,2012-11-25 06:53:00
2:53 AM,42.1,39.9,92,30.11,10.0,North,3.5,-,N/A,,Clear,350,2012-11-25 07:53:00
3:53 AM,45.0,37.0,74,30.11,10.0,North,6.9,-,N/A,,Clear,360,2012-11-25 08:53:00
4:53 AM,43.0,35.1,74,30.12,10.0,North,6.9,-,N/A,,Clear,350,2012-11-25 09:53:00
5:53 AM,42.1,33.1,70,30.13,10.0,North,8.1,-,N/A,,Clear,360,2012-11-25 10:53:00
6:53 AM,41.0,32.0,70,30.15,10.0,North,5.8,-,N/A,,Clear,360,2012-11-25 11:53:00
7:53 AM,43.0,32.0,65,30.17,10.0,NNW,4.6,-,N/A,,Clear,340,2012-11-25 12:53:00
8:53 AM,50.0,34.0,54,30.19,10.0,North,4.6,-,N/A,,Clear,360,2012-11-25 13:53:00
9:53 AM,55.9,37.9,51,30.20,10.0,Calm,Calm,-,N/A,,Clear,0,2012-11-25 14:53:00
10:53 AM,60.1,42.1,51,30.20,10.0,Variable,3.5,-,N/A,,Clear,0,2012-11-25 15:53:00
11:53 AM,64.0,36.0,35,30.18,10.0,West,5.8,-,N/A,,Clear,270,2012-11-25 16:53:00
12:53 PM,66.9,28.9,24,30.15,10.0,NW,5.8,-,N/A,,Clear,320,2012-11-25 17:53:00
1:53 PM,68.0,23.0,18,30.13,10.0,NW,6.9,-,N/A,,Clear,310,2012-11-25 18:53:00
2:53 PM,69.1,23.0,18,30.12,10.0,NNW,4.6,-,N/A,,Clear,330,2012-11-25 19:53:00
3:53 PM,68.0,25.0,20,30.12,10.0,NW,4.6,-,N/A,,Clear,320,2012-11-25 20:53:00
4:53 PM,64.9,32.0,29,30.12,10.0,Calm,Calm,-,N/A,,Clear,0,2012-11-25 21:53:00
5:53 PM,55.9,39.9,55,30.13,10.0,Calm,Calm,-,N/A,,Clear,0,2012-11-25 22:53:00
6:53 PM,53.1,37.9,57,30.15,10.0,Calm,Calm,-,N/A,,Clear,0,2012-11-25 23:53:00
7:53 PM,52.0,39.0,61,30.17,10.0,Calm,Calm,-,N/A,,Clear,0,2012-11-26 00:53:00
8:53 PM,50.0,37.9,63,30.17,10.0,Calm,Calm,-,N/A,,Clear,0,2012-11-26 01:53:00
9:53 PM,46.0,41.0,83,30.19,10.0,Calm,Calm,-,N/A,,Clear,0,2012-11-26 02:53:00
10:53 PM,46.0,39.9,79,30.19,10.0,Calm,Calm,-,N/A,,Clear,0,2012-11-26 03:53:00
11:53 PM,45.0,42.1,90,30.18,10.0,Calm,Calm,-,N/A,,Clear,0,2012-11-26 04:53:00